Confirmed
The Acre meteor video shows the re-entry of the Breeze M rocket stage.
Possible re-entry sighting in Acre, Brazil.
Chuva de meteoros no Acre
UpdateThe Proton Breeze M Debris (Tank) re-entered the Earths atmosphere on the 24th April, 2011 @ 04:10 GMT ± 1 minute.
BREEZE-M TANK1 26737U 01014B 11114.08570285 .99999999 13138-4 65751-3 0 24792 26737 048.2527 218.5219 0209193 303.5375 241.4745 16.15701252 89658
Inclination: 48.21°Revolution Number: 8966Predicted Location: 12°S, 293°E
UpdateThe Proton Breeze M Debris (Tank) is predicted to re-enter the Earths atmosphere on the 24th April, 2011 @ 02:46 GMT ± 7 hours.
BREEZE-M TANK1 26737U 01014B 11113.76525214 .44370603 12460-4 55279-3 0 24372 26737 048.2143 220.3489 0408701 300.3223 211.8644 15.64085031 89602
Period: 93.92 minutesInclination: 48.21°Apogee: 822 kmPerigee: 111 km Revolution Number: 8966Predicted Location: 4.5°S, 322°E
UpdateThe Proton Breeze M Debris (Tank) is predicted to re-enter the Earths atmosphere on the 24th April, 2011 @ 05:42 GMT ± 14 hours.
BREEZE-M TANK1 26737U 01014B 11113.43050602 .32881846 10207-4 75874-3 0 23932 26737 048.2065 222.1047 0519242 298.7403 144.9087 15.33228929 89550
Period: 97.34 minutesInclination: 48.22°Apogee: 1158 kmPerigee: 105 km Revolution Number: 8968Predicted Location: 23.5°S, 258.4°E
UpdateThe Proton Breeze M Debris (Tank) is predicted to re-enter the Earths atmosphere on the 24th April, 2011 @ 07:46 GMT ± 24 hours.
BREEZE-M TANK1 26737U 01014B 11112.43309071 .18284650 83665-5 40427-3 0 23542 26737 048.2184 227.0919 0750880 294.4667 142.7125 14.79293708 89403
Period: 97.34 minutesInclination: 48.22°Apogee: 1158 kmPerigee: 105 km Revolution Number: 8970Predicted Location: 45.5°N, 314.6°E
A Proton Breeze M Debris (Tank) that was launched on the 7th April, 2001, from the Baikonur Cosmodrome, Kazakhstan, for the Ekran 21 satellite mission is predicted to re-enter the Earths atmosphere on the 24th April, 2011 @ 07:17 GMT ± 48 hours.
BREEZE-M TANK1 26737U 01014B 11111.66688581 .27019971 00000-0 79842-1 0 23212 26737 048.2815 230.9805 0719297 287.5210 064.2419 14.53162086 83937
Period: 99.74 minutesInclination: 48.22°Apogee: 1386 kmPerigee: 106 km Revolution Number: 8969Predicted Location: 29.2°S, 227.3°E